EW0591 Weather Reports


time (UTC)temp
F
wind
direction
speed
knots
gust
knots
rain 1hr
in
rain 24hr
in
rain mn
in
humidity
%
barometer
mb
20260508004356 73 282 3.5 4.3 0.00 0.00 0.00 33 1019.8
20260508003853 73 251 0.9 1.7 0.00 0.00 0.00 37 1019.9
20260508003350 73 338 7.8 11.3 0.00 0.00 0.00 35 1019.9
20260508002848 73 311 5.2 6.1 0.00 0.00 0.00 36 1019.7
20260508002343 73 261 3.5 5.2 0.00 0.00 0.00 35 1020.0
20260508001840 73 303 5.2 6.1 0.00 0.00 0.00 34 1019.9
20260508001336 73 281 3.5 4.3 0.00 0.00 0.00 34 1019.9
20260508000832 74 320 3.5 4.3 0.00 0.00 0.00 34 1019.8
20260508000329 73 288 3.5 4.3 0.00 0.00 0.00 36 1019.6
20260507235825 73 344 7.8 9.6 0.00 0.00 0.00 35 1019.7
20260507235323 74 5 6.1 7.0 0.00 0.00 0.00 35 1019.7
20260507234820 74 290 4.3 5.2 0.00 0.00 0.00 32 1019.6
20260507234317 73 287 3.5 4.3 0.00 0.00 0.00 34 1019.5
20260507233813 74 291 4.3 5.2 0.00 0.00 0.00 32 1019.5
20260507233311 72 324 6.1 8.7 0.00 0.00 0.00 34 1019.8
20260507232809 74 336 7.0 11.3 0.00 0.00 0.00 34 1019.6
20260507232306 75 243 3.5 6.1 0.00 0.00 0.00 33 1019.7
20260507231802 74 339 6.1 7.0 0.00 0.00 0.00 33 1019.8
20260507231259 74 312 3.5 4.3 0.00 0.00 0.00 36 1019.7
20260507230755 74 355 6.1 7.8 0.00 0.00 0.00 34 1019.7
20260507230252 75 3 6.1 7.0 0.00 0.00 0.00 35 1019.8
20260507225752 74 349 7.8 9.6 0.00 0.00 0.00 32 1019.6
20260507225248 75 337 9.6 12.2 0.00 0.00 0.00 32 1019.6
20260507224744 75 2 6.1 7.0 0.00 0.00 0.00 33 1019.6
20260507224241 74 346 3.5 4.3 0.00 0.00 0.00 36 1019.8
20260507223737 73 267 0.9 0.9 0.00 0.00 0.00 40 1019.9
20260507223234 72 87 0.9 1.7 0.00 0.00 0.00 37 1019.7
20260507222731 72 315 1.7 1.7 0.00 0.00 0.00 39 1020.0
20260507222227 71 172 0.9 1.7 0.00 0.00 0.00 38 1019.9
20260507221724 74 192 4.3 5.2 0.00 0.00 0.00 36 1020.1
20260507221220 74 221 0.0 0.9 0.00 0.00 0.00 36 1019.8
20260507220717 73 288 0.0 0.9 0.00 0.00 0.00 34 1019.8
20260507220216 73 239 0.0 0.0 0.00 0.00 0.00 33 1020.0
20260507215711 73 180 0.9 0.9 0.00 0.00 0.00 34 1020.0
20260507215209 73 46 0.9 0.9 0.00 0.00 0.00 36 1020.2
20260507214706 72 242 0.0 0.9 0.00 0.00 0.00 35 1020.2
20260507214203 72 188 1.7 2.6 0.00 0.00 0.00 38 1020.5
20260507213658 70 10 0.0 0.9 0.00 0.00 0.00 37 1020.2
20260507213156 69 200 0.0 0.0 0.00 0.00 0.00 38 1020.4
20260507212652 69 327 0.9 0.9 0.00 0.00 0.00 41 1020.5
20260507212149 70 63 0.0 0.0 0.00 0.00 0.00 43 1020.7
20260507211646 70 331 2.6 2.6 0.00 0.00 0.00 42 1020.7
20260507211141 71 216 0.0 0.0 0.00 0.00 0.00 36 1020.5
20260507210639 71 102 0.0 0.0 0.00 0.00 0.00 40 1020.8
20260507210135 71 65 0.9 0.9 0.00 0.00 0.00 40 1020.5
20260507205632 72 24 1.7 1.7 0.00 0.00 0.00 40 1020.7
20260507205128 70 229 0.0 0.0 0.00 0.00 0.00 39 1020.6
20260507204625 69 302 1.7 1.7 0.00 0.00 0.00 38 1020.8
20260507204122 70 329 1.7 2.6 0.00 0.00 0.00 40 1020.9
20260507203620 72 357 0.9 1.7 0.00 0.00 0.00 36 1021.0
20260507203117 70 302 0.9 0.9 0.00 0.00 0.00 41 1020.7
20260507202613 70 224 0.9 0.9 0.00 0.00 0.00 37 1021.0
20260507202110 70 311 0.9 1.7 0.00 0.00 0.00 37 1020.9
20260507201605 69 237 0.0 0.0 0.00 0.00 0.00 40 1021.0
20260507201102 69 62 0.9 1.7 0.00 0.00 0.00 39 1021.0
20260507200557 71 356 4.3 5.2 0.00 0.00 0.00 38 1020.7
20260507200053 71 301 0.9 0.9 0.00 0.00 0.00 43 1021.0
20260507195551 70 289 0.0 0.0 0.00 0.00 0.00 43 1020.8
20260507195048 71 208 0.0 0.9 0.00 0.00 0.00 40 1021.0
20260507194544 69 329 2.6 4.3 0.00 0.00 0.00 40 1020.8
20260507194040 70 320 6.1 7.0 0.00 0.00 0.00 40 1021.0
20260507193538 72 238 0.0 0.0 0.00 0.00 0.00 37 1021.0
20260507193034 72 132 1.7 1.7 0.00 0.00 0.00 38 1021.1
20260507192530 73 200 0.9 1.7 0.00 0.00 0.00 36 1021.0
20260507192028 71 163 0.0 0.0 0.00 0.00 0.00 39 1020.8
20260507191523 72 88 1.7 1.7 0.00 0.00 0.00 39 1021.0
20260507191020 71 320 3.5 4.3 0.00 0.00 0.00 38 1020.9
20260507190517 70 279 2.6 2.6 0.00 0.00 0.00 39 1020.9
20260507190016 70 11 4.3 5.2 0.00 0.00 0.00 40 1020.8
20260507185514 69 303 0.9 1.7 0.00 0.00 0.00 42 1021.1
20260507185010 69 301 2.6 2.6 0.00 0.00 0.00 40 1021.1
20260507184509 69 335 1.7 1.7 0.00 0.00 0.00 44 1021.3
20260507184006 70 318 1.7 1.7 0.00 0.00 0.00 41 1021.2
20260507183502 70 220 1.7 1.7 0.00 0.00 0.00 38 1021.5
20260507182959 70 205 2.6 4.3 0.00 0.00 0.00 39 1021.3
20260507182455 69 237 0.0 0.0 0.00 0.00 0.00 45 1021.3
20260507181951 70 5 2.6 4.3 0.00 0.00 0.00 40 1021.5
20260507181448 69 131 0.0 0.0 0.00 0.00 0.00 43 1021.3
20260507180944 69 110 0.0 0.9 0.00 0.00 0.00 43 1021.6
20260507180441 70 217 0.0 0.0 0.00 0.00 0.00 40 1021.5
20260507175937 70 160 3.5 4.3 0.00 0.00 0.00 41 1021.7
20260507175434 69 1 0.9 1.7 0.00 0.00 0.00 41 1021.7
20260507174932 69 133 3.5 4.3 0.00 0.00 0.00 44 1021.8
20260507174429 69 178 0.9 1.7 0.00 0.00 0.00 41 1021.7
20260507173926 69 123 2.6 2.6 0.00 0.00 0.00 40 1021.9
20260507173423 68 50 0.9 0.9 0.00 0.00 0.00 43 1022.0
20260507172920 67 232 0.0 0.9 0.00 0.00 0.00 41 1021.9
20260507172416 68 26 1.7 1.7 0.00 0.00 0.00 42 1022.0
20260507171913 69 161 3.5 5.2 0.00 0.00 0.00 41 1022.0
20260507171409 68 231 0.0 0.0 0.00 0.00 0.00 43 1022.1
20260507170907 68 165 0.9 2.6 0.00 0.00 0.00 45 1021.9
20260507170403 66 246 0.0 0.0 0.00 0.00 0.00 44 1021.8
20260507165859 66 241 0.9 0.9 0.00 0.00 0.00 43 1021.9
20260507165355 66 357 1.7 1.7 0.00 0.00 0.00 46 1022.1
20260507164851 66 274 1.7 1.7 0.00 0.00 0.00 48 1022.0
20260507164348 65 239 0.0 0.0 0.00 0.00 0.00 49 1021.8
20260507163845 66 310 0.0 0.0 0.00 0.00 0.00 46 1022.0
20260507163343 66 216 0.0 0.0 0.00 0.00 0.00 50 1021.8
20260507162839 65 253 1.7 2.6 0.00 0.00 0.00 47 1022.0
20260507162335 66 358 1.7 2.6 0.00 0.00 0.00 50 1022.0
20260507161832 66 308 0.9 2.6 0.00 0.00 0.00 51 1021.9
20260507161328 64 357 2.6 2.6 0.00 0.00 0.00 52 1022.1
20260507160825 64 233 0.0 0.0 0.00 0.00 0.00 53 1022.2
20260507160321 64 295 0.0 0.0 0.00 0.00 0.00 51 1022.2
20260507155818 65 340 0.9 1.7 0.00 0.00 0.00 51 1021.9
20260507155313 63 199 0.0 0.0 0.00 0.00 0.00 52 1022.0
20260507154810 63 164 0.0 0.0 0.00 0.00 0.00 55 1022.3
20260507154308 62 245 0.0 0.0 0.00 0.00 0.00 53 1022.1
20260507153804 62 282 0.9 0.9 0.00 0.00 0.00 53 1022.3
20260507153300 62 240 0.0 0.0 0.00 0.00 0.00 54 1022.2
20260507152757 61 214 0.0 0.0 0.00 0.00 0.00 54 1022.3
20260507152254 60 237 0.0 0.0 0.00 0.00 0.00 59 1022.5
20260507151749 60 250 0.0 0.0 0.00 0.00 0.00 58 1022.6
20260507151246 59 215 0.9 0.9 0.00 0.00 0.00 61 1022.3
20260507150743 59 189 0.9 1.7 0.00 0.00 0.00 61 1022.5
20260507150239 59 244 0.0 0.9 0.00 0.00 0.00 59 1022.2
20260507145736 58 287 1.7 1.7 0.00 0.00 0.00 58 1022.2
20260507145232 57 273 0.0 0.9 0.00 0.00 0.00 62 1022.1
20260507144729 57 242 0.0 0.0 0.00 0.00 0.00 66 1022.3
20260507144227 56 342 0.9 0.9 0.00 0.00 0.00 67 1022.5
20260507143723 55 228 0.0 0.0 0.00 0.00 0.00 68 1022.1
20260507143221 55 309 0.9 1.7 0.00 0.00 0.00 70 1022.1
20260507142716 54 217 0.0 0.0 0.00 0.00 0.00 68 1021.8
20260507142213 54 191 0.0 0.0 0.00 0.00 0.00 72 1021.9
20260507141709 54 206 0.9 1.7 0.00 0.00 0.00 70 1022.0
20260507141207 53 205 0.0 0.0 0.00 0.00 0.00 68 1021.9
20260507140703 53 274 0.0 0.9 0.00 0.00 0.00 74 1021.9
20260507140201 53 152 1.7 1.7 0.00 0.00 0.00 71 1021.8
20260507135657 53 202 0.0 0.0 0.00 0.00 0.00 72 1021.8
20260507135155 53 234 0.0 0.0 0.00 0.00 0.00 69 1021.9
20260507134651 52 124 0.0 0.9 0.00 0.00 0.00 71 1021.8
20260507134147 51 250 0.0 0.9 0.00 0.00 0.00 72 1021.6
20260507133643 52 21 0.0 0.9 0.00 0.00 0.00 74 1021.5
20260507133141 50 249 0.0 0.0 0.00 0.00 0.00 71 1021.7
20260507132638 50 84 0.9 0.9 0.00 0.00 0.00 74 1021.6
20260507132134 49 234 0.0 0.0 0.00 0.00 0.00 76 1021.5
20260507131631 48 206 0.0 0.0 0.00 0.00 0.00 76 1021.6
20260507131128 49 305 1.7 1.7 0.00 0.00 0.00 75 1021.3
20260507130624 46 90 0.0 0.9 0.00 0.00 0.00 80 1021.6
20260507130123 47 259 2.6 2.6 0.00 0.00 0.00 79 1021.5
20260507125621 45 118 1.7 1.7 0.00 0.00 0.00 81 1021.2
20260507125119 46 244 1.7 2.6 0.00 0.00 0.00 82 1021.6
20260507124614 46 42 0.9 1.7 0.00 0.00 0.00 82 1021.5
20260507124113 44 277 0.0 0.0 0.00 0.00 0.00 83 1021.3
20260507123610 44 279 0.0 0.9 0.00 0.00 0.00 83 1021.2
20260507123107 45 247 1.7 1.7 0.00 0.00 0.00 81 1021.1
20260507122602 45 70 2.6 2.6 0.00 0.00 0.00 83 1021.2
20260507122058 46 278 0.0 0.0 0.00 0.00 0.00 82 1021.0
20260507121554 46 101 0.0 0.9 0.00 0.00 0.00 81 1020.7
20260507121050 46 285 0.0 0.9 0.00 0.00 0.00 80 1021.0
20260507120546 46 145 0.0 0.0 0.00 0.00 0.00 79 1020.9
20260507120044 46 293 1.7 1.7 0.00 0.00 0.00 79 1020.9
20260507115540 47 94 0.0 0.9 0.00 0.00 0.00 76 1020.7
20260507115036 48 278 0.9 1.7 0.00 0.00 0.00 75 1020.8
20260507114532 50 61 0.9 0.9 0.00 0.00 0.00 73 1020.7
20260507114029 50 218 0.0 0.0 0.00 0.00 0.00 73 1020.8
20260507113526 49 168 0.9 0.9 0.00 0.00 0.00 73 1020.7
20260507113024 49 6 2.6 2.6 0.00 0.00 0.00 73 1020.4
20260507112521 50 162 1.7 1.7 0.00 0.00 0.00 72 1020.5
20260507112018 51 349 4.3 5.2 0.00 0.00 0.00 70 1020.4
20260507111515 48 268 1.7 2.6 0.00 0.00 0.00 76 1020.2
20260507111011 48 336 2.6 2.6 0.00 0.00 0.00 76 1019.9
20260507110508 50 25 1.7 1.7 0.00 0.00 0.00 74 1020.0
20260507110005 48 59 2.6 4.3 0.00 0.00 0.00 77 1019.8
20260507105501 48 175 2.6 2.6 0.00 0.00 0.00 76 1019.9
20260507104957 48 227 2.6 2.6 0.00 0.00 0.00 78 1020.1
20260507104455 49 205 0.9 0.9 0.00 0.00 0.00 75 1020.1
20260507103950 46 289 0.9 0.9 0.00 0.00 0.00 78 1020.4
20260507103447 48 60 0.9 1.7 0.00 0.00 0.00 77 1020.4
20260507102943 47 254 0.0 0.0 0.00 0.00 0.00 78 1020.1
20260507102440 46 247 0.0 0.0 0.00 0.00 0.00 79 1020.1
20260507101937 46 283 0.0 0.9 0.00 0.00 0.00 79 1020.1
20260507101432 46 215 1.7 2.6 0.00 0.00 0.00 78 1020.1
20260507100928 48 243 0.0 0.0 0.00 0.00 0.00 77 1020.0
20260507100426 47 67 1.7 1.7 0.00 0.00 0.00 78 1020.0
20260507095924 47 10 0.0 0.9 0.00 0.00 0.00 78 1019.9
20260507095421 49 255 3.5 4.3 0.00 0.00 0.00 75 1020.0
20260507094918 50 176 2.6 2.6 0.00 0.00 0.00 74 1020.1
20260507094414 50 178 0.0 0.9 0.00 0.00 0.00 73 1019.9
20260507093911 50 174 0.9 0.9 0.00 0.00 0.00 72 1020.2
20260507093409 48 220 0.0 0.0 0.00 0.00 0.00 75 1020.2
20260507092908 51 260 4.3 4.3 0.00 0.00 0.00 73 1019.9
20260507092403 50 139 2.6 2.6 0.00 0.00 0.00 73 1020.0
20260507091900 51 228 0.9 1.7 0.00 0.00 0.00 73 1019.8
20260507091356 51 343 0.9 0.9 0.00 0.00 0.00 70 1019.9
20260507090852 51 219 0.0 0.0 0.00 0.00 0.00 71 1019.9
20260507090349 53 222 0.0 0.0 0.00 0.00 0.00 69 1019.8
20260507085846 53 196 0.0 0.0 0.00 0.00 0.00 68 1019.9
20260507085343 53 92 0.9 1.7 0.00 0.00 0.00 67 1019.8
20260507084840 52 235 1.7 1.7 0.00 0.00 0.00 70 1019.8
20260507084336 54 119 1.7 1.7 0.00 0.00 0.00 66 1019.7
20260507083834 53 205 0.0 0.0 0.00 0.00 0.00 67 1019.9
20260507083330 53 146 0.0 0.0 0.00 0.00 0.00 68 1019.7
20260507082826 53 194 0.0 0.9 0.00 0.00 0.00 67 1019.9
20260507082322 54 228 0.0 0.0 0.00 0.00 0.00 65 1019.8
20260507081819 55 179 0.9 0.9 0.00 0.00 0.00 63 1019.9
20260507081315 56 193 0.0 0.0 0.00 0.00 0.00 62 1019.8
20260507080812 56 144 0.9 0.9 0.00 0.00 0.00 60 1019.9
20260507080308 55 132 3.5 4.3 0.00 0.00 0.00 62 1019.8
20260507075803 56 237 0.0 0.0 0.00 0.00 0.00 63 1019.7
20260507075300 56 84 1.7 1.7 0.00 0.00 0.00 61 1019.7
20260507074756 55 212 0.0 0.0 0.00 0.00 0.00 63 1019.7
20260507074255 55 196 0.0 0.0 0.00 0.00 0.00 63 1019.5
20260507073751 56 201 0.0 0.9 0.00 0.00 0.00 61 1019.7
20260507073248 56 194 0.0 0.0 0.00 0.00 0.00 63 1019.7
20260507072746 55 340 2.6 2.6 0.00 0.00 0.00 65 1019.6
20260507072243 55 206 0.0 0.0 0.00 0.00 0.00 64 1019.7
20260507071740 55 240 0.0 0.0 0.00 0.00 0.00 65 1019.5
20260507071236 57 149 0.9 0.9 0.00 0.00 0.00 60 1019.5
20260507070733 56 253 0.0 0.0 0.00 0.00 0.00 60 1019.6
20260507070230 57 218 0.0 0.0 0.00 0.00 0.00 62 1019.4
20260507065727 58 171 1.7 1.7 0.00 0.00 0.00 59 1019.5
20260507065224 59 161 1.7 1.7 0.00 0.00 0.00 56 1019.5
20260507064721 60 282 0.0 0.0 0.00 0.00 0.00 55 1019.5
20260507064220 60 192 0.0 0.0 0.00 0.00 0.00 52 1019.2
20260507063717 60 184 0.9 0.9 0.00 0.00 0.00 53 1019.5
20260507063213 61 198 0.0 0.0 0.00 0.00 0.00 51 1019.5
20260507062710 61 185 0.0 0.9 0.00 0.00 0.00 52 1019.6
20260507062208 61 204 0.0 0.0 0.00 0.00 0.00 52 1019.6
20260507061706 62 90 2.6 2.6 0.00 0.00 0.00 50 1019.6
20260507061203 61 359 0.0 0.9 0.00 0.00 0.00 52 1019.4
20260507060701 62 159 2.6 2.6 0.00 0.00 0.00 50 1019.1
20260507060157 62 224 0.0 0.0 0.00 0.00 0.00 50 1019.2
20260507055653 64 19 0.0 0.0 0.00 0.00 0.00 48 1019.0
20260507055149 64 40 0.0 0.9 0.00 0.00 0.00 45 1019.6
20260507054645 60 301 0.0 0.9 0.00 0.00 0.00 48 1019.7
20260507054142 60 124 0.9 1.7 0.00 0.00 0.00 47 1019.7
20260507053641 61 198 2.6 2.6 0.00 0.00 0.00 54 1019.7
20260507053138 64 293 0.0 0.0 0.00 0.00 0.00 47 1019.6
20260507052637 66 58 0.0 0.9 0.00 0.00 0.00 39 1019.2
20260507052132 60 16 0.9 1.7 0.00 0.00 0.00 53 1019.6
20260507051630 61 144 0.0 0.0 0.00 0.00 0.00 54 1019.5
20260507051127 60 208 0.0 0.0 0.00 0.00 0.00 56 1019.6
20260507050624 62 137 0.0 0.9 0.00 0.00 0.00 55 1019.0
20260507050120 63 184 0.0 0.0 0.00 0.00 0.00 48 1019.4
20260507045617 64 150 0.9 0.9 0.00 0.00 0.00 52 1019.2
20260507045114 67 11 3.5 4.3 0.00 0.00 0.00 44 1019.1
20260507044611 67 220 2.6 2.6 0.00 0.00 0.00 40 1019.1
20260507044108 66 206 4.3 5.2 0.00 0.00 0.00 40 1019.5
20260507043603 65 207 0.9 0.9 0.00 0.00 0.00 45 1019.4
20260507043101 65 234 0.0 0.0 0.00 0.00 0.00 45 1019.4
20260507042556 66 113 0.9 0.9 0.00 0.00 0.00 45 1019.1
20260507042052 66 73 0.9 0.9 0.00 0.00 0.00 45 1019.4
20260507041549 67 97 0.9 0.9 0.00 0.00 0.00 44 1019.2
20260507041046 67 184 2.6 2.6 0.00 0.00 0.00 41 1019.2
20260507040543 68 216 2.6 2.6 0.00 0.00 0.00 43 1019.4
20260507040039 68 258 0.0 0.0 0.00 0.00 0.00 40 1019.2
20260507035535 68 90 4.3 7.0 0.00 0.00 0.00 41 1019.1
20260507035032 69 166 2.6 5.2 0.00 0.00 0.00 39 1019.0
20260507034528 64 216 0.0 0.0 0.00 0.00 0.00 49 1018.8
20260507034026 64 8 2.6 2.6 0.00 0.00 0.00 53 1019.0
20260507033524 64 150 0.0 0.0 0.00 0.00 0.00 51 1018.8
20260507033021 65 38 0.9 0.9 0.00 0.00 0.00 49 1018.8
20260507032518 64 27 0.9 0.9 0.00 0.00 0.00 52 1018.4
20260507032014 66 62 1.7 1.7 0.00 0.00 0.00 50 1018.6
20260507031510 68 48 0.0 0.0 0.00 0.00 0.00 44 1018.6
20260507031008 69 231 1.7 2.6 0.00 0.00 0.00 42 1018.4
20260507030504 65 110 0.9 1.7 0.00 0.00 0.00 44 1018.7
20260507030002 66 141 1.7 1.7 0.00 0.00 0.00 50 1018.4
20260507025459 67 156 2.6 2.6 0.00 0.00 0.00 45 1018.4
20260507024957 64 208 1.7 1.7 0.00 0.00 0.00 51 1018.6
20260507024454 66 197 0.0 0.9 0.00 0.00 0.00 51 1018.1
20260507023950 66 147 0.0 0.0 0.00 0.00 0.00 47 1018.3
20260507023447 65 333 0.9 0.9 0.00 0.00 0.00 48 1018.3
20260507022944 66 172 0.0 0.0 0.00 0.00 0.00 45 1018.7
20260507022441 67 258 0.0 0.0 0.00 0.00 0.00 43 1018.7
20260507021936 65 234 0.0 0.9 0.00 0.00 0.00 45 1018.5
20260507021432 66 203 0.0 0.0 0.00 0.00 0.00 50 1018.6
20260507020930 67 264 0.0 0.0 0.00 0.00 0.00 51 1018.4
20260507020426 68 240 2.6 4.3 0.00 0.00 0.00 43 1018.5
20260507015923 66 74 1.7 2.6 0.00 0.00 0.00 43 1018.3
20260507015422 66 206 0.0 0.9 0.00 0.00 0.00 51 1018.6
20260507014918 67 289 1.7 1.7 0.00 0.00 0.00 49 1018.3
20260507014415 66 301 0.0 0.0 0.00 0.00 0.00 52 1018.4
20260507013911 67 166 0.0 0.0 0.00 0.00 0.00 52 1018.5
20260507013408 68 157 0.0 0.9 0.00 0.00 0.00 54 1018.7
20260507012906 68 308 0.9 0.9 0.00 0.00 0.00 52 1018.6
20260507012402 69 188 0.9 0.9 0.00 0.00 0.00 51 1018.3
20260507011859 69 239 0.0 0.0 0.00 0.00 0.00 49 1018.4
20260507011355 70 206 0.9 0.9 0.00 0.00 0.00 58 1018.5
20260507010849 70 159 0.0 0.0 0.00 0.00 0.00 50 1018.6
20260507010345 70 246 0.9 0.9 0.00 0.00 0.00 49 1018.4
20260507005843 70 214 0.9 0.9 0.00 0.00 0.00 53 1018.5
20260507005339 70 210 0.0 0.0 0.00 0.00 0.00 47 1018.6
20260507004836 70 263 0.0 0.0 0.00 0.00 0.00 47 1018.8